Regional Weather Roundup
Issued by NWS Charleston, SC

Current Version | Previous Version | Text Only | Print | Product List | Glossary Off
Versions: 1 2 3 4 5 6 7 8 9 10 11 12 13 14 15 16 17 18 19 20 21 22 23 24 25 26 27 28 29 30 31 32 33 34 35 36 37 38 39 40 41 42 43 44 45 46 47 48 49 50

000
ASUS42 KCHS 281612
RWRCHS

REGIONAL WEATHER ROUNDUP
NATIONAL WEATHER SERVICE CHARLESTON SC
1200 PM EDT THU MAY 28 2015

NOTE: "FAIR" INDICATES FEW OR NO CLOUDS BELOW 12,000 FEET WITH NO
SIGNIFICANT WEATHER AND/OR OBSTRUCTIONS TO VISIBILITY.

NOT ALL STATIONS ARE QUALITY CONTROLLED BY THE NATIONAL
WEATHER SERVICE. USE DATA WITH CAUTION...ESPECIALLY
DEWPOINT OBSERVATIONS.

SCZ027-030-031-034>040-042>050-281700-
...SOUTHEAST SOUTH CAROLINA...

CITY           SKY/WX    TMP DP  RH WIND       PRES   REMARKS
N CHARLESTON   PTSUNNY   82  66  58 E7        30.23S
WATERFRONT PAR   N/A     77  70  79 SE9       30.21S
MOUNT PLEASANT FAIR      81  66  61 E7        30.24S
JOHNS ISLAND   MOSUNNY   81  70  69 E12       30.24S
PINOPOLIS        N/A     81  70  69 VRB3      30.17S
MONCKS CORNER  PTSUNNY   82  66  57 E6        30.23F
SUMMERVILLE    PTSUNNY   81  68  65 E5        30.24S
BEAUFORT MCAS  NOT AVBL
BEAUFORT ARPT  PTSUNNY   79  68  69 SE3       30.22S HAZE
HILTON HEAD IS MOSUNNY   81  70  69 E6        30.24S
WALTERBORO     PTSUNNY   81  63  54 E3        30.23F
ALLENDALE      FAIR      81  66  61 SE9       30.22F

...SOUTHERN MIDLANDS AND PEE DEE...

CITY           SKY/WX    TMP DP  RH WIND       PRES   REMARKS
GEORGETOWN     NOT AVBL
KINGSTREE      NOT AVBL
ORANGEBURG     MOSUNNY   83  65  54 E8        30.24S
BARNWELL       FAIR      84  64  51 E5        30.23F
AIKEN          FAIR      81  59  47 CALM      30.26F
MANNING        CLOUDY    79  64  61 S3        30.24S
COLUMBIA       MOSUNNY   84  65  52 E6        30.22S
SUMTER         PTSUNNY   83  67  58 SE8       30.22S
FLORENCE       MOSUNNY   81  67  62 SE6       30.24S
MYRTLE BEACH   MOSUNNY   81  63  54 SE10      30.27S
N MYRTLE BEACH SUNNY     78  64  61 S10       30.25F

$$

GAZ063-065-086>088-099>101-113>116-118-119-134>141-150-281700-
...SOUTHEAST GEORGIA...

CITY           SKY/WX    TMP DP  RH WIND       PRES   REMARKS
SAVANNAH ARPT  PTSUNNY   83  62  49 VRB7G16   30.22F
HUNTER AAF     MOSUNNY   84  66  54 SE6       30.20S
FORT STEWART   MOSUNNY   84  63  50 SE10      30.20F
STATESBORO     PTSUNNY   82  69  64 S6        30.23S
SYLVANIA       PTSUNNY   83  68  61 E6        30.23F
CLAXTON        FAIR      81  66  61 SE5       30.22F

...CSRA...CENTRAL AND FAR SOUTHEAST GEORGIA...

CITY           SKY/WX    TMP DP  RH WIND       PRES   REMARKS
THOMSON        MOSUNNY   83  70  64 SE5       30.27S
AUGUSTA-BUSH   MOSUNNY   84  65  52 SE6       30.21S
AUGUSTA-DANIEL MOSUNNY   83  63  50 SE6       30.23S
SWAINSBORO     FAIR      82  68  61 CALM      30.24S
VIDALIA        PTSUNNY   81  64  57 S6        30.23S
EASTMAN        PTSUNNY   83  67  59 SE6       30.25S
HAZLEHURST     PTSUNNY   82  66  58 CALM      30.21F
ALMA           PTSUNNY   82  65  56 E9        30.21S
WAYCROSS       MOSUNNY   84  67  56 SE9       30.21F
JESUP          PTSUNNY   86  64  48 SE5       30.22S
BAXLEY         PTSUNNY   82  64  54 SE5       30.21F
BRUNSWICK        N/A     81  63  54 SE12      30.22F
SAINT SIMONS   NOT AVBL

$$

SCZ027-028-034-036>038-045-046-048>050-GAZ119-141-281700-
...LAKE AND SUPPLEMENTAL COASTAL OBSERVATIONS...

STATION/POSITION TIME  TEMP    WIND        PRES    WAVE   SWELL
                       AIR SEA DIR/SP/G            HT/PER HT/PER/DIR
                 (UTC) (F)     (DEG/KT/KT) (MB)    (FT/S) (FT/S/D)
UPR LAKE MARION  NOT AVBL
WINYAH BAY       NOT AVBL
LAKE MURRAY      1500   81     180/  3/  4 1022.7S
ACE BASIN NERRS  NOT AVBL
FORT PULASKI     1500   77 79   80/  7/  9 1024.3R
SAPELO ISLAND    1500   83      80/  9     1023.0S

$$

ANZ835-935-AMZ111-154-330-350-352-354-370-450-454-472-281700-
...C-MAN AND BUOY OBSERVATIONS...

STATION/POSITION TIME  TEMP    WIND        PRES    WAVE   SWELL
                       AIR SEA DIR/SP/G            HT/PER HT/PER/DIR
                 (UTC) (F)     (DEG/KT/KT) (MB)    (FT/S) (FT/S/D)
BUOY 41004       1550   76 78  100/  6/  8 1023.6R   3/ 8   3/ 8
BUOY 41008       1550   77 78  110/  8/ 10 1023.8R   3/ 8   3/120/ 8
FOLLY BEACH CMAN 1600   76     110/  7/  9 1024.1F
CAPERS NEARSHORE 1508   76     100/  8/ 12 1024.4R
FRIPP NEARSHORE  1500   78      90/  6/  8 1023.5R


STATION/POSITION TIME  TEMP    WIND        PRES    WAVE   SWELL
                       AIR SEA DIR/SP/G            HT/PER HT/PER/DIR
                 (UTC) (F)     (DEG/KT/KT) (MB)    (FT/S) (FT/S/D)
5E ST. MARYS GA  1521      79                N/A     3/ 8
FRYING PAN BUOY  1550   76 75  110/  8/ 10 1025.0F   4/ 8   3/140/ 8
BUOY 41025       1550   75 78  160/  6/  8 1025.3S   3/ 7   3/110/ 7
CAPE LOOKOUT NC  1600   74     130/  7/  7 1024.7F
BUOY 41002       1550   74 74   50/ 12/ 14 1023.7S   5/ 8   5/ 90/ 8
BUOY 41010       1520   77 81   70/ 16/ 19 1021.7R
ST AUGUSTINE FL  1600   78 79   70/ 10/ 11 1023.3F


$$



USA.gov is the U.S. government's official web portal to all federal, state and local government web resources and services.